| time (UTC) | temp C | wind direction | speed KPH | gust KPH | rain 1hr cm | rain 24hr cm | rain mn cm | humidity % | barometer mb |
| 20260503034123 | 15 | 166 | 11.3 | 27.4 | 0.00 | 0.00 | 0.00 | 42 | 1007.0 |
| 20260503033122 | 15 | 162 | 12.9 | 29.0 | 0.00 | 0.00 | 0.00 | 41 | 1006.9 |
| 20260503032123 | 16 | 160 | 12.9 | 27.4 | 0.00 | 0.00 | 0.00 | 40 | 1007.0 |
| 20260503031122 | 16 | 162 | 11.3 | 22.5 | 0.00 | 0.03 | 0.00 | 39 | 1007.0 |
| 20260503030123 | 16 | 169 | 9.7 | 25.7 | 0.00 | 0.30 | 0.00 | 39 | 1007.0 |
| 20260503025122 | 16 | 161 | 9.7 | 20.9 | 0.00 | 0.30 | 0.00 | 38 | 1006.9 |
| 20260503024143 | 17 | 165 | 11.3 | 25.7 | 0.00 | 0.48 | 0.00 | 36 | 1006.9 |
| 20260503023123 | 17 | 155 | 12.9 | 29.0 | 0.00 | 0.64 | 0.00 | 35 | 1006.8 |
| 20260503022122 | 18 | 148 | 12.9 | 29.0 | 0.00 | 0.76 | 0.00 | 33 | 1006.8 |
| 20260503021122 | 18 | 158 | 9.7 | 22.5 | 0.00 | 0.99 | 0.00 | 32 | 1006.8 |
| 20260503020143 | 18 | 150 | 11.3 | 29.0 | 0.00 | 0.99 | 0.00 | 32 | 1006.8 |
| 20260503015122 | 19 | 175 | 9.7 | 22.5 | 0.00 | 0.99 | 0.00 | 31 | 1007.0 |
| 20260503014122 | 20 | 158 | 9.7 | 22.5 | 0.00 | 0.99 | 0.00 | 30 | 1007.0 |
| 20260503013143 | 20 | 172 | 9.7 | 20.9 | 0.00 | 0.99 | 0.00 | 29 | 1007.1 |
| 20260503012143 | 20 | 175 | 11.3 | 32.2 | 0.00 | 0.99 | 0.00 | 29 | 1007.3 |
| 20260503011122 | 20 | 171 | 11.3 | 27.4 | 0.00 | 0.99 | 0.00 | 28 | 1007.4 |
| 20260503010123 | 21 | 176 | 9.7 | 25.7 | 0.00 | 0.99 | 0.00 | 27 | 1007.4 |
| 20260503005122 | 21 | 170 | 8.0 | 20.9 | 0.00 | 0.99 | 0.00 | 27 | 1007.5 |
| 20260503004122 | 21 | 175 | 11.3 | 25.7 | 0.00 | 0.99 | 0.00 | 28 | 1007.5 |
| 20260503003122 | 21 | 175 | 9.7 | 24.1 | 0.00 | 0.99 | 0.00 | 28 | 1007.7 |
| 20260503002122 | 21 | 167 | 9.7 | 24.1 | 0.00 | 0.99 | 0.00 | 27 | 1007.8 |
| 20260503001123 | 21 | 154 | 8.0 | 22.5 | 0.00 | 0.99 | 0.00 | 27 | 1007.9 |
| 20260503000143 | 21 | 179 | 9.7 | 24.1 | 0.00 | 0.99 | 0.00 | 28 | 1007.9 |
| 20260502235143 | 21 | 177 | 9.7 | 25.7 | 0.00 | 0.99 | 0.00 | 28 | 1008.0 |
| 20260502234143 | 21 | 178 | 9.7 | 29.0 | 0.00 | 0.99 | 0.00 | 28 | 1008.2 |
| 20260502233123 | 20 | 189 | 8.0 | 27.4 | 0.00 | 0.99 | 0.00 | 28 | 1008.3 |
| 20260502232124 | 20 | 171 | 11.3 | 22.5 | 0.00 | 0.99 | 0.00 | 28 | 1008.5 |
| 20260502231123 | 20 | 184 | 9.7 | 22.5 | 0.00 | 0.99 | 0.00 | 29 | 1008.7 |
| 20260502230123 | 21 | 164 | 9.7 | 24.1 | 0.00 | 0.99 | 0.00 | 28 | 1008.7 |
| 20260502225123 | 21 | 164 | 9.7 | 25.7 | 0.00 | 0.99 | 0.00 | 29 | 1008.8 |
| 20260502224143 | 21 | 159 | 9.7 | 22.5 | 0.00 | 0.99 | 0.00 | 28 | 1009.0 |
| 20260502223124 | 20 | 156 | 9.7 | 29.0 | 0.00 | 0.99 | 0.00 | 29 | 1009.1 |
| 20260502222122 | 20 | 151 | 9.7 | 27.4 | 0.00 | 0.99 | 0.00 | 29 | 1009.3 |
| 20260502221122 | 20 | 147 | 8.0 | 30.6 | 0.00 | 0.99 | 0.00 | 29 | 1009.5 |
| 20260502220122 | 19 | 162 | 11.3 | 29.0 | 0.00 | 0.99 | 0.00 | 31 | 1009.5 |
| 20260502215122 | 20 | 164 | 11.3 | 29.0 | 0.00 | 0.99 | 0.00 | 30 | 1009.7 |
| 20260502214122 | 18 | 200 | 12.9 | 30.6 | 0.00 | 0.99 | 0.00 | 32 | 1009.9 |
| 20260502213122 | 20 | 197 | 8.0 | 25.7 | 0.00 | 0.99 | 0.00 | 31 | 1009.9 |
| 20260502212122 | 18 | 195 | 6.4 | 20.9 | 0.00 | 0.99 | 0.00 | 32 | 1010.2 |
| 20260502211122 | 20 | 180 | 8.0 | 27.4 | 0.00 | 0.99 | 0.00 | 29 | 1010.4 |
| 20260502210123 | 18 | 199 | 12.9 | 30.6 | 0.00 | 0.99 | 0.00 | 32 | 1010.4 |
| 20260502205123 | 17 | 179 | 8.0 | 22.5 | 0.00 | 1.02 | 0.00 | 33 | 1010.4 |
| 20260502204123 | 20 | 124 | 6.4 | 20.9 | 0.00 | 1.02 | 0.00 | 30 | 1010.7 |
| 20260502203122 | 19 | 167 | 8.0 | 20.9 | 0.00 | 1.07 | 0.00 | 31 | 1010.9 |
| 20260502202122 | 20 | 173 | 9.7 | 25.7 | 0.00 | 1.07 | 0.00 | 30 | 1011.1 |
| 20260502201122 | 17 | 196 | 9.7 | 29.0 | 0.00 | 1.07 | 0.00 | 34 | 1011.3 |
| 20260502200124 | 18 | 129 | 4.8 | 14.5 | 0.00 | 1.07 | 0.00 | 33 | 1011.3 |
| 20260502195122 | 16 | 202 | 8.0 | 29.0 | 0.00 | 1.07 | 0.00 | 35 | 1011.6 |
| 20260502194123 | 17 | 209 | 8.0 | 24.1 | 0.00 | 1.07 | 0.00 | 35 | 1011.8 |
| 20260502193143 | 15 | 220 | 12.9 | 27.4 | 0.00 | 1.22 | 0.00 | 37 | 1011.9 |
| 20260502192143 | 16 | 203 | 9.7 | 29.0 | 0.00 | 1.22 | 0.00 | 37 | 1012.0 |
| 20260502191122 | 16 | 192 | 9.7 | 29.0 | 0.00 | 1.22 | 0.00 | 36 | 1012.1 |
| 20260502190122 | 17 | 179 | 8.0 | 22.5 | 0.00 | 1.22 | 0.00 | 35 | 1012.1 |
| 20260502185144 | 16 | 144 | 9.7 | 22.5 | 0.00 | 1.22 | 0.00 | 37 | 1012.2 |
| 20260502184144 | 17 | 127 | 8.0 | 25.7 | 0.00 | 1.22 | 0.00 | 35 | 1012.3 |
| 20260502183123 | 15 | 130 | 8.0 | 27.4 | 0.00 | 1.22 | 0.00 | 37 | 1012.5 |
| 20260502182122 | 16 | 121 | 9.7 | 22.5 | 0.00 | 1.22 | 0.00 | 36 | 1012.7 |
| 20260502181122 | 16 | 135 | 9.7 | 22.5 | 0.00 | 1.22 | 0.00 | 36 | 1012.9 |
| 20260502180143 | 16 | 126 | 8.0 | 22.5 | 0.00 | 1.22 | 0.00 | 36 | 1012.9 |
| 20260502170122 | 14 | 162 | 6.4 | 20.9 | 0.00 | 1.22 | 0.00 | 40 | 1013.4 |
| 20260502164122 | 13 | 141 | 6.4 | 14.5 | 0.00 | 1.22 | 0.00 | 40 | 1013.5 |
| 20260502163122 | 13 | 131 | 8.0 | 14.5 | 0.00 | 1.22 | 0.00 | 41 | 1013.6 |
| 20260502162122 | 13 | 125 | 8.0 | 17.7 | 0.00 | 1.22 | 0.00 | 41 | 1013.7 |
| 20260502161122 | 13 | 101 | 6.4 | 16.1 | 0.00 | 1.22 | 0.00 | 44 | 1013.8 |
| 20260502160123 | 12 | 103 | 4.8 | 12.9 | 0.00 | 1.22 | 0.00 | 44 | 1013.8 |
| 20260502152143 | 11 | 97 | 6.4 | 12.9 | 0.00 | 1.22 | 0.00 | 47 | 1013.9 |
| 20260502151143 | 11 | 102 | 4.8 | 12.9 | 0.00 | 1.22 | 0.00 | 50 | 1013.9 |
| 20260502150123 | 11 | 90 | 4.8 | 11.3 | 0.00 | 1.22 | 0.00 | 53 | 1013.9 |
| 20260502140122 | 8 | 288 | 1.6 | 12.9 | 0.00 | 1.22 | 0.00 | 62 | 1013.6 |
| 20260502130143 | 7 | 357 | 1.6 | 6.4 | 0.00 | 1.22 | 0.00 | 67 | 1013.4 |
| 20260502123122 | 7 | 259 | 3.2 | 6.4 | 0.00 | 1.22 | 0.00 | 68 | 1013.4 |
| 20260502122122 | 7 | 289 | 1.6 | 6.4 | 0.00 | 1.22 | 0.00 | 65 | 1013.4 |
| 20260502121122 | 7 | 295 | 4.8 | 11.3 | 0.00 | 1.22 | 0.00 | 65 | 1013.4 |
| 20260502120122 | 7 | 346 | 4.8 | 9.7 | 0.00 | 1.22 | 0.00 | 66 | 1013.4 |
| 20260502115143 | 7 | 333 | 8.0 | 14.5 | 0.00 | 1.22 | 0.00 | 65 | 1013.4 |
| 20260502114122 | 7 | 355 | 8.0 | 14.5 | 0.00 | 1.22 | 0.00 | 66 | 1013.4 |
| 20260502113123 | 7 | 340 | 8.0 | 16.1 | 0.00 | 1.22 | 0.00 | 65 | 1013.4 |
| 20260502112122 | 7 | 11 | 4.8 | 11.3 | 0.00 | 1.22 | 0.00 | 67 | 1013.5 |
| 20260502111122 | 8 | 307 | 4.8 | 11.3 | 0.00 | 1.22 | 0.00 | 65 | 1013.4 |
| 20260502110122 | 8 | 289 | 4.8 | 11.3 | 0.00 | 1.22 | 0.00 | 64 | 1013.4 |
| 20260502105123 | 8 | 328 | 8.0 | 16.1 | 0.00 | 1.22 | 0.00 | 65 | 1013.5 |
| 20260502104122 | 8 | 344 | 8.0 | 19.3 | 0.00 | 1.22 | 0.00 | 64 | 1013.3 |
| 20260502103122 | 9 | 338 | 12.9 | 27.4 | 0.00 | 1.22 | 0.00 | 62 | 1013.4 |
| 20260502102122 | 9 | 325 | 14.5 | 29.0 | 0.00 | 1.22 | 0.00 | 60 | 1013.4 |
| 20260502101123 | 9 | 344 | 12.9 | 25.7 | 0.00 | 1.22 | 0.00 | 62 | 1013.3 |
| 20260502100143 | 9 | 326 | 11.3 | 24.1 | 0.00 | 1.22 | 0.00 | 62 | 1013.3 |
| 20260502091123 | 9 | 297 | 12.9 | 24.1 | 0.00 | 1.22 | 0.00 | 62 | 1013.2 |
| 20260502090123 | 10 | 308 | 12.9 | 29.0 | 0.00 | 1.22 | 0.00 | 61 | 1013.2 |
| 20260502071122 | 8 | 279 | 11.3 | 20.9 | 0.00 | 1.22 | 0.00 | 63 | 1012.8 |
| 20260502070143 | 8 | 288 | 12.9 | 24.1 | 0.00 | 1.22 | 0.00 | 63 | 1012.8 |
| 20260502065123 | 8 | 274 | 12.9 | 24.1 | 0.00 | 1.22 | 0.00 | 63 | 1012.8 |
| 20260502064122 | 8 | 280 | 9.7 | 20.9 | 0.00 | 1.22 | 0.00 | 63 | 1012.8 |
| 20260502063122 | 8 | 274 | 8.0 | 19.3 | 0.00 | 1.22 | 0.00 | 63 | 1012.7 |
| 20260502062122 | 8 | 266 | 9.7 | 19.3 | 0.00 | 1.22 | 0.00 | 63 | 1012.8 |
| 20260502061144 | 8 | 277 | 9.7 | 19.3 | 0.00 | 1.22 | 0.00 | 63 | 1012.7 |
| 20260502060125 | 8 | 272 | 9.7 | 20.9 | 0.00 | 1.22 | 0.00 | 64 | 1012.7 |
| 20260502055122 | 8 | 258 | 8.0 | 14.5 | 0.00 | 1.22 | 1.22 | 65 | 1012.6 |
| 20260502054123 | 8 | 247 | 6.4 | 12.9 | 0.00 | 1.22 | 1.22 | 63 | 1012.5 |
| 20260502053122 | 10 | 221 | 1.6 | 8.0 | 0.00 | 1.22 | 1.22 | 60 | 1012.3 |
| 20260502052126 | 10 | 90 | 0.0 | 4.8 | 0.00 | 1.22 | 1.22 | 59 | 1012.2 |
| 20260502051123 | 10 | 38 | 3.2 | 11.3 | 0.00 | 1.22 | 1.22 | 59 | 1012.1 |
| 20260502050123 | 10 | 340 | 8.0 | 19.3 | 0.00 | 1.22 | 1.22 | 58 | 1012.1 |
| 20260502045123 | 10 | 351 | 8.0 | 20.9 | 0.00 | 1.22 | 1.22 | 59 | 1012.2 |
| 20260502044123 | 10 | 2 | 8.0 | 20.9 | 0.00 | 1.22 | 1.22 | 59 | 1012.0 |
| 20260502043122 | 10 | 350 | 8.0 | 22.5 | 0.00 | 1.22 | 1.22 | 58 | 1012.0 |
| 20260502041122 | 10 | 41 | 11.3 | 29.0 | 0.03 | 1.22 | 1.22 | 59 | 1011.8 |
| 20260502040122 | 10 | 60 | 14.5 | 37.0 | 0.30 | 1.22 | 1.22 | 59 | 1011.6 |
| 20260502035122 | 11 | 15 | 17.7 | 41.8 | 0.30 | 1.22 | 1.22 | 56 | 1011.6 |